Time,TemperatureF,DewpointF,PressureIn,WindDirection,WindDirectionDegrees,WindSpeedMPH,WindSpeedGustMPH,Humidity,HourlyPrecipIn,Conditions,Clouds,dailyrainin,SoftwareType,DateUTC
2013-05-08 00:01:00,54.7,53.8,29.98,NW,315,0.0,0.0,97,0.00,CLR,,0.00,WeatherDisplay:10.37,2013-05-08 04:01:00,
2013-05-08 00:06:00,54.7,53.8,29.98,NW,315,0.0,0.0,97,0.00,CLR,,0.00,WeatherDisplay:10.37,2013-05-08 04:06:00,
2013-05-08 00:11:00,54.5,53.7,29.98,NW,315,0.0,0.0,97,0.00,CLR,,0.00,WeatherDisplay:10.37,2013-05-08 04:11:00,
2013-05-08 00:16:00,54.5,53.7,29.98,NW,315,0.0,0.0,97,0.00,CLR,,0.00,WeatherDisplay:10.37,2013-05-08 04:16:00,
2013-05-08 00:21:00,54.3,53.5,29.98,NW,315,0.0,0.0,97,0.00,CLR,,0.00,WeatherDisplay:10.37,2013-05-08 04:21:00,
2013-05-08 00:26:00,54.3,53.5,29.98,NW,315,0.0,0.0,97,0.00,CLR,,0.00,WeatherDisplay:10.37,2013-05-08 04:26:00,
2013-05-08 00:31:00,54.1,53.3,29.98,NW,315,0.0,0.0,97,0.00,CLR,,0.00,WeatherDisplay:10.37,2013-05-08 04:31:00,
2013-05-08 00:36:00,54.1,53.3,29.98,SW,225,1.1,0.0,97,0.00,CLR,,0.00,WeatherDisplay:10.37,2013-05-08 04:36:00,
2013-05-08 00:41:00,54.1,53.3,29.98,SW,225,0.0,0.0,97,0.00,CLR,,0.00,WeatherDisplay:10.37,2013-05-08 04:41:00,
2013-05-08 00:46:00,54.0,53.1,29.98,North,0,0.0,0.0,97,0.00,CLR,,0.00,WeatherDisplay:10.37,2013-05-08 04:46:00,
2013-05-08 00:51:00,53.8,52.9,29.98,North,0,0.0,0.0,97,0.00,CLR,,0.00,WeatherDisplay:10.37,2013-05-08 04:51:00,
2013-05-08 00:56:00,53.8,52.9,29.98,North,0,0.0,0.0,97,0.00,CLR,,0.00,WeatherDisplay:10.37,2013-05-08 04:56:00,
2013-05-08 01:01:00,53.8,52.9,29.98,North,0,0.0,0.0,97,0.00,CLR,,0.00,WeatherDisplay:10.37,2013-05-08 05:01:00,
2013-05-08 01:06:00,53.8,52.9,29.98,North,0,0.0,0.0,97,0.00,CLR,,0.00,WeatherDisplay:10.37,2013-05-08 05:06:00,
2013-05-08 01:11:00,53.8,52.9,29.98,North,0,0.0,0.0,97,0.00,CLR,,0.00,WeatherDisplay:10.37,2013-05-08 05:11:00,
2013-05-08 01:16:00,53.6,52.8,29.98,North,0,0.0,0.0,97,0.00,CLR,,0.00,WeatherDisplay:10.37,2013-05-08 05:16:00,
2013-05-08 01:21:00,53.6,52.8,29.98,North,0,0.0,0.0,97,0.00,CLR,,0.00,WeatherDisplay:10.37,2013-05-08 05:21:00,
2013-05-08 01:26:00,53.6,52.8,29.98,North,0,0.0,0.0,97,0.00,CLR,,0.00,WeatherDisplay:10.37,2013-05-08 05:26:00,
2013-05-08 01:31:00,53.6,52.8,29.97,North,0,0.0,0.0,97,0.00,CLR,,0.00,WeatherDisplay:10.37,2013-05-08 05:31:00,
2013-05-08 01:36:00,53.6,52.8,29.98,North,0,0.0,0.0,97,0.00,CLR,,0.00,WeatherDisplay:10.37,2013-05-08 05:36:00,
2013-05-08 01:41:00,53.6,52.8,29.98,North,0,0.0,0.0,97,0.00,CLR,,0.00,WeatherDisplay:10.37,2013-05-08 05:41:00,
2013-05-08 01:46:00,53.6,52.8,29.97,North,0,0.0,0.0,97,0.00,CLR,,0.00,WeatherDisplay:10.37,2013-05-08 05:46:00,
2013-05-08 01:51:00,53.4,52.9,29.97,North,0,0.0,0.0,98,0.00,CLR,,0.00,WeatherDisplay:10.37,2013-05-08 05:51:00,
2013-05-08 01:56:00,53.2,52.7,29.97,North,0,0.0,0.0,98,0.00,CLR,,0.00,WeatherDisplay:10.37,2013-05-08 05:56:00,
2013-05-08 02:01:00,53.1,52.5,29.96,North,0,0.0,0.0,98,0.00,CLR,,0.00,WeatherDisplay:10.37,2013-05-08 06:01:00,
2013-05-08 02:06:00,53.1,52.5,29.97,North,0,0.0,0.0,98,0.00,CLR,,0.00,WeatherDisplay:10.37,2013-05-08 06:06:00,
2013-05-08 02:11:00,53.1,52.5,29.96,North,0,0.0,0.0,98,0.00,CLR,,0.00,WeatherDisplay:10.37,2013-05-08 06:11:00,
2013-05-08 02:16:00,53.1,52.5,29.96,North,0,0.0,0.0,98,0.00,CLR,,0.00,WeatherDisplay:10.37,2013-05-08 06:16:00,
2013-05-08 02:21:00,53.1,52.5,29.96,North,0,0.0,0.0,98,0.00,CLR,,0.00,WeatherDisplay:10.37,2013-05-08 06:21:00,
2013-05-08 02:26:00,53.1,52.5,29.95,North,0,0.0,0.0,98,0.00,CLR,,0.00,WeatherDisplay:10.37,2013-05-08 06:26:00,
2013-05-08 02:31:00,53.1,52.5,29.95,North,0,0.0,0.0,98,0.00,CLR,,0.00,WeatherDisplay:10.37,2013-05-08 06:31:00,
2013-05-08 02:36:00,53.1,52.5,29.95,North,0,0.0,0.0,98,0.00,CLR,,0.00,WeatherDisplay:10.37,2013-05-08 06:36:00,
2013-05-08 02:41:00,52.9,52.3,29.95,North,0,0.0,0.0,98,0.00,CLR,,0.00,WeatherDisplay:10.37,2013-05-08 06:41:00,
2013-05-08 02:46:00,52.9,52.3,29.95,North,0,0.0,0.0,98,0.00,CLR,,0.00,WeatherDisplay:10.37,2013-05-08 06:46:00,
2013-05-08 02:51:00,52.9,52.3,29.95,North,0,0.0,0.0,98,0.00,CLR,,0.00,WeatherDisplay:10.37,2013-05-08 06:51:00,
2013-05-08 02:56:00,52.9,52.3,29.95,North,0,0.0,0.0,98,0.00,CLR,,0.00,WeatherDisplay:10.37,2013-05-08 06:56:00,
2013-05-08 03:01:00,52.7,52.2,29.95,North,0,1.1,0.0,98,0.00,CLR,,0.00,WeatherDisplay:10.37,2013-05-08 07:01:00,
2013-05-08 03:06:00,52.7,52.2,29.95,North,0,0.0,0.0,98,0.00,CLR,,0.00,WeatherDisplay:10.37,2013-05-08 07:06:00,
2013-05-08 03:11:00,52.5,52.0,29.95,North,0,0.0,0.0,98,0.00,CLR,,0.00,WeatherDisplay:10.37,2013-05-08 07:11:00,
2013-05-08 03:16:00,52.3,51.8,29.95,West,270,2.3,0.0,98,0.00,CLR,,0.00,WeatherDisplay:10.37,2013-05-08 07:16:00,
2013-05-08 03:21:00,52.3,51.8,29.95,West,270,0.0,0.0,98,0.00,CLR,,0.00,WeatherDisplay:10.37,2013-05-08 07:21:00,
2013-05-08 03:26:00,52.3,51.8,29.96,West,270,1.1,0.0,98,0.00,CLR,,0.00,WeatherDisplay:10.37,2013-05-08 07:26:00,
2013-05-08 03:31:00,52.3,51.8,29.95,West,270,2.3,0.0,98,0.00,CLR,,0.00,WeatherDisplay:10.37,2013-05-08 07:31:00,
2013-05-08 03:36:00,52.5,52.0,29.95,West,270,0.0,0.0,98,0.00,CLR,,0.00,WeatherDisplay:10.37,2013-05-08 07:36:00,
2013-05-08 03:41:00,52.5,52.0,29.95,SW,225,1.1,0.0,98,0.00,CLR,,0.00,WeatherDisplay:10.37,2013-05-08 07:41:00,
2013-05-08 03:46:00,52.5,52.0,29.95,SW,225,2.3,2.3,98,0.00,CLR,,0.00,WeatherDisplay:10.37,2013-05-08 07:46:00,
2013-05-08 03:51:00,52.3,51.8,29.95,SW,225,0.0,0.0,98,0.00,CLR,,0.00,WeatherDisplay:10.37,2013-05-08 07:51:00,
2013-05-08 03:56:00,52.5,52.0,29.95,SW,225,1.1,1.3,98,0.00,CLR,,0.00,WeatherDisplay:10.37,2013-05-08 07:56:00,
2013-05-08 04:01:00,52.9,52.3,29.95,SW,225,1.1,0.0,98,0.00,CLR,,0.00,WeatherDisplay:10.37,2013-05-08 08:01:00,
2013-05-08 04:06:00,52.9,52.3,29.96,SW,225,0.0,0.0,98,0.00,CLR,,0.00,WeatherDisplay:10.37,2013-05-08 08:06:00,
2013-05-08 04:11:00,53.1,52.5,29.95,SW,225,0.0,0.0,98,0.00,CLR,,0.00,WeatherDisplay:10.37,2013-05-08 08:11:00,
2013-05-08 04:16:00,52.9,52.3,29.96,SW,225,2.3,2.3,98,0.00,CLR,,0.00,WeatherDisplay:10.37,2013-05-08 08:16:00,
2013-05-08 04:21:00,52.9,52.3,29.96,SW,225,2.3,2.3,98,0.00,CLR,,0.00,WeatherDisplay:10.37,2013-05-08 08:21:00,
2013-05-08 04:26:00,52.9,52.3,29.96,West,270,0.0,0.0,98,0.00,CLR,,0.00,WeatherDisplay:10.37,2013-05-08 08:26:00,
2013-05-08 04:31:00,53.1,52.5,29.96,West,270,0.0,0.0,98,0.00,CLR,,0.00,WeatherDisplay:10.37,2013-05-08 08:31:00,
2013-05-08 04:36:00,53.1,52.5,29.96,West,270,0.0,0.0,98,0.00,CLR,,0.00,WeatherDisplay:10.37,2013-05-08 08:36:00,
2013-05-08 04:41:00,53.1,52.5,29.96,West,270,0.0,0.0,98,0.00,CLR,,0.00,WeatherDisplay:10.37,2013-05-08 08:41:00,
2013-05-08 04:46:00,52.9,52.3,29.96,West,270,0.0,0.0,98,0.00,CLR,,0.00,WeatherDisplay:10.37,2013-05-08 08:46:00,
2013-05-08 04:51:00,52.9,52.3,29.97,SW,225,0.0,0.0,98,0.00,CLR,,0.00,WeatherDisplay:10.37,2013-05-08 08:51:00,
2013-05-08 04:56:00,52.9,52.3,29.97,SW,225,0.0,0.0,98,0.00,CLR,,0.00,WeatherDisplay:10.37,2013-05-08 08:56:00,
2013-05-08 05:01:00,52.7,52.2,29.97,SW,225,0.0,0.0,98,0.00,CLR,,0.00,WeatherDisplay:10.37,2013-05-08 09:01:00,
2013-05-08 05:06:00,52.7,52.2,29.97,SW,225,0.0,0.0,98,0.00,CLR,,0.00,WeatherDisplay:10.37,2013-05-08 09:06:00,
2013-05-08 05:11:00,52.7,52.2,29.97,SW,225,0.0,0.0,98,0.00,CLR,,0.00,WeatherDisplay:10.37,2013-05-08 09:11:00,
2013-05-08 05:16:00,52.5,52.0,29.97,SW,225,0.0,0.0,98,0.00,CLR,,0.00,WeatherDisplay:10.37,2013-05-08 09:16:00,
2013-05-08 05:21:00,52.3,51.8,29.97,SW,225,0.0,0.0,98,0.00,CLR,,0.00,WeatherDisplay:10.37,2013-05-08 09:21:00,
2013-05-08 05:26:00,52.3,51.8,29.97,SW,225,0.0,0.0,98,0.00,CLR,,0.00,WeatherDisplay:10.37,2013-05-08 09:26:00,
2013-05-08 05:31:00,52.2,51.6,29.97,SW,225,0.0,0.0,98,0.00,CLR,,0.00,WeatherDisplay:10.37,2013-05-08 09:31:00,
2013-05-08 05:36:00,52.2,51.6,29.98,SW,225,0.0,0.0,98,0.00,CLR,,0.00,WeatherDisplay:10.37,2013-05-08 09:36:00,
2013-05-08 05:41:00,52.0,51.4,29.98,North,0,0.0,0.0,98,0.00,CLR,,0.00,WeatherDisplay:10.37,2013-05-08 09:41:00,
2013-05-08 05:46:00,51.8,51.3,29.98,North,0,0.0,0.0,98,0.00,CLR,,0.00,WeatherDisplay:10.37,2013-05-08 09:46:00,
2013-05-08 05:51:00,51.8,51.3,29.98,North,0,0.0,0.0,98,0.00,CLR,,0.00,WeatherDisplay:10.37,2013-05-08 09:51:00,
2013-05-08 05:56:00,51.6,51.3,29.98,North,0,0.0,0.0,99,0.00,CLR,,0.00,WeatherDisplay:10.37,2013-05-08 09:56:00,
2013-05-08 06:01:00,51.6,51.3,29.98,North,0,0.0,0.0,99,0.00,CLR,,0.00,WeatherDisplay:10.37,2013-05-08 10:01:00,
2013-05-08 06:06:00,51.4,51.2,29.98,West,270,0.0,0.0,99,0.00,CLR,,0.00,WeatherDisplay:10.37,2013-05-08 10:06:00,
2013-05-08 06:11:00,51.4,51.2,29.98,West,270,0.0,0.0,99,0.00,CLR,,0.00,WeatherDisplay:10.37,2013-05-08 10:11:00,
2013-05-08 06:16:00,51.3,51.0,29.98,West,270,0.0,0.0,99,0.00,CLR,,0.00,WeatherDisplay:10.37,2013-05-08 10:16:00,
2013-05-08 06:21:00,51.3,51.0,29.99,West,270,0.0,0.0,99,0.00,CLR,,0.00,WeatherDisplay:10.37,2013-05-08 10:21:00,
2013-05-08 06:26:00,51.3,51.0,29.99,West,270,0.0,0.0,99,0.00,CLR,,0.00,WeatherDisplay:10.37,2013-05-08 10:26:00,
2013-05-08 06:31:00,51.3,51.0,29.99,SW,225,0.0,0.0,99,0.00,CLR,,0.00,WeatherDisplay:10.37,2013-05-08 10:31:00,
2013-05-08 06:36:00,51.3,51.0,29.99,SW,225,2.3,2.3,99,0.00,CLR,,0.00,WeatherDisplay:10.37,2013-05-08 10:36:00,
2013-05-08 06:41:00,51.3,51.0,30.00,SW,225,0.0,0.0,99,0.00,CLR,,0.00,WeatherDisplay:10.37,2013-05-08 10:41:00,
2013-05-08 06:46:00,51.3,51.0,30.00,West,270,0.0,0.0,99,0.00,CLR,,0.00,WeatherDisplay:10.37,2013-05-08 10:46:00,
2013-05-08 06:51:00,51.4,51.2,30.00,SW,225,0.0,0.0,99,0.00,CLR,,0.00,WeatherDisplay:10.37,2013-05-08 10:51:00,
2013-05-08 06:56:00,51.6,51.3,30.01,South,180,0.0,0.0,99,0.00,CLR,,0.00,WeatherDisplay:10.37,2013-05-08 10:56:00,
2013-05-08 07:01:00,51.8,51.3,30.01,SW,225,0.0,0.0,98,0.00,CLR,,0.00,WeatherDisplay:10.37,2013-05-08 11:01:00,
2013-05-08 07:06:00,51.8,51.3,30.01,SW,225,0.0,0.0,98,0.00,CLR,,0.00,WeatherDisplay:10.37,2013-05-08 11:06:00,
2013-05-08 07:11:00,51.8,51.3,30.01,SW,225,2.3,0.0,98,0.00,CLR,,0.00,WeatherDisplay:10.37,2013-05-08 11:11:00,
2013-05-08 07:16:00,51.6,51.3,30.02,SW,225,0.0,0.0,99,0.00,CLR,,0.00,WeatherDisplay:10.37,2013-05-08 11:16:00,
2013-05-08 07:21:00,51.6,51.3,30.02,SW,225,0.0,0.0,99,0.00,CLR,,0.00,WeatherDisplay:10.37,2013-05-08 11:21:00,
2013-05-08 07:26:00,51.8,51.3,30.02,SW,225,0.0,0.0,98,0.00,CLR,,0.00,WeatherDisplay:10.37,2013-05-08 11:26:00,
2013-05-08 07:31:00,51.8,51.3,30.02,SW,225,0.0,0.0,98,0.00,CLR,,0.00,WeatherDisplay:10.37,2013-05-08 11:31:00,
2013-05-08 07:36:00,51.8,51.3,30.03,SW,225,0.0,0.0,98,0.00,CLR,,0.00,WeatherDisplay:10.37,2013-05-08 11:36:00,
2013-05-08 07:41:00,52.0,51.4,30.03,SW,225,2.3,2.3,98,0.00,CLR,,0.00,WeatherDisplay:10.37,2013-05-08 11:41:00,
2013-05-08 07:46:00,52.3,51.8,30.03,SW,225,2.3,0.0,98,0.00,CLR,,0.00,WeatherDisplay:10.37,2013-05-08 11:46:00,
2013-05-08 07:51:00,52.5,52.0,30.03,SW,225,2.3,0.0,98,0.00,CLR,,0.00,WeatherDisplay:10.37,2013-05-08 11:51:00,
2013-05-08 07:56:00,52.7,52.2,30.03,WNW,292,2.3,0.0,98,0.00,CLR,,0.00,WeatherDisplay:10.37,2013-05-08 11:56:00,
2013-05-08 08:01:00,52.9,52.3,30.04,West,270,0.0,0.0,98,0.00,CLR,,0.00,WeatherDisplay:10.37,2013-05-08 12:01:00,
2013-05-08 08:06:00,53.1,52.5,30.04,South,180,2.7,2.7,98,0.00,CLR,,0.00,WeatherDisplay:10.37,2013-05-08 12:06:00,
2013-05-08 08:11:00,53.2,52.7,30.04,SW,225,4.6,0.0,98,0.00,CLR,,0.00,WeatherDisplay:10.37,2013-05-08 12:11:00,
2013-05-08 08:16:00,53.6,52.8,30.04,South,180,4.6,4.6,97,0.00,CLR,,0.00,WeatherDisplay:10.37,2013-05-08 12:16:00,
2013-05-08 08:21:00,54.1,53.3,30.04,South,180,5.8,5.8,97,0.00,CLR,,0.00,WeatherDisplay:10.37,2013-05-08 12:21:00,
2013-05-08 08:26:00,54.5,53.7,30.05,South,180,4.6,4.6,97,0.00,CLR,,0.00,WeatherDisplay:10.37,2013-05-08 12:26:00,
2013-05-08 08:31:00,54.7,53.8,30.05,SW,225,4.6,4.6,97,0.00,CLR,,0.00,WeatherDisplay:10.37,2013-05-08 12:31:00,
2013-05-08 08:36:00,55.0,54.2,30.05,East,90,8.1,8.1,97,0.00,CLR,,0.00,WeatherDisplay:10.37,2013-05-08 12:36:00,
2013-05-08 08:41:00,55.2,54.4,30.05,SSW,202,4.4,4.4,97,0.00,CLR,,0.00,WeatherDisplay:10.37,2013-05-08 12:41:00,
2013-05-08 08:46:00,55.6,55.3,30.05,South,180,2.3,4.4,99,0.00,CLR,,0.00,WeatherDisplay:10.37,2013-05-08 12:46:00,
2013-05-08 08:51:00,55.8,55.5,30.06,SE,135,2.3,2.7,99,0.00,CLR,,0.00,WeatherDisplay:10.37,2013-05-08 12:51:00,
2013-05-08 08:56:00,55.9,55.7,30.05,SW,225,2.3,0.0,99,0.00,CLR,,0.00,WeatherDisplay:10.37,2013-05-08 12:56:00,
2013-05-08 09:01:00,56.1,55.8,30.06,South,180,2.3,2.3,99,0.00,CLR,,0.00,WeatherDisplay:10.37,2013-05-08 13:01:00,
2013-05-08 09:06:00,56.5,56.2,30.06,South,180,2.3,2.3,99,0.00,CLR,,0.00,WeatherDisplay:10.37,2013-05-08 13:06:00,
2013-05-08 09:11:00,56.7,56.4,30.06,West,270,2.3,2.3,99,0.00,CLR,,0.00,WeatherDisplay:10.37,2013-05-08 13:11:00,
2013-05-08 09:16:00,57.0,56.7,30.06,South,180,5.7,0.0,99,0.00,CLR,,0.00,WeatherDisplay:10.37,2013-05-08 13:16:00,
2013-05-08 09:21:00,57.4,57.1,30.05,SW,225,4.6,4.6,99,0.00,CLR,,0.00,WeatherDisplay:10.37,2013-05-08 13:21:00,
2013-05-08 09:26:00,58.1,57.8,30.06,South,180,8.1,8.1,99,0.00,CLR,,0.00,WeatherDisplay:10.37,2013-05-08 13:26:00,
2013-05-08 09:31:00,58.6,58.4,30.06,SW,225,8.1,8.1,99,0.00,CLR,,0.00,WeatherDisplay:10.37,2013-05-08 13:31:00,
2013-05-08 09:36:00,59.4,59.1,30.06,SW,225,5.8,5.8,99,0.00,CLR,,0.00,WeatherDisplay:10.37,2013-05-08 13:36:00,
2013-05-08 09:41:00,59.7,59.4,30.06,South,180,6.9,6.9,99,0.00,CLR,,0.00,WeatherDisplay:10.37,2013-05-08 13:41:00,
2013-05-08 09:46:00,60.1,59.5,30.06,South,180,8.1,8.1,98,0.00,CLR,,0.00,WeatherDisplay:10.37,2013-05-08 13:46:00,
2013-05-08 09:51:00,60.8,59.4,30.06,SE,135,5.8,5.8,95,0.00,CLR,,0.00,WeatherDisplay:10.37,2013-05-08 13:51:00,
2013-05-08 09:56:00,61.2,59.7,30.05,SSW,202,6.9,6.9,95,0.00,CLR,,0.00,WeatherDisplay:10.37,2013-05-08 13:56:00,
2013-05-08 10:01:00,61.5,59.8,30.05,South,180,8.1,8.1,94,0.00,CLR,,0.00,WeatherDisplay:10.37,2013-05-08 14:01:00,
2013-05-08 10:06:00,61.9,59.8,30.05,SSW,202,4.6,4.6,93,0.00,CLR,,0.00,WeatherDisplay:10.37,2013-05-08 14:06:00,
2013-05-08 10:11:00,62.1,60.0,30.05,South,180,2.3,0.0,93,0.00,CLR,,0.00,WeatherDisplay:10.37,2013-05-08 14:11:00,
2013-05-08 10:16:00,62.4,60.4,30.06,SW,225,5.8,5.8,93,0.00,CLR,,0.00,WeatherDisplay:10.37,2013-05-08 14:16:00,
2013-05-08 10:21:00,62.6,59.9,30.06,South,180,10.4,10.4,91,0.00,CLR,,0.00,WeatherDisplay:10.37,2013-05-08 14:21:00,
2013-05-08 10:26:00,63.0,60.0,30.06,SE,135,5.8,5.8,90,0.00,CLR,,0.00,WeatherDisplay:10.37,2013-05-08 14:26:00,
2013-05-08 10:31:00,63.3,60.3,30.06,SW,225,4.6,4.6,90,0.00,CLR,,0.00,WeatherDisplay:10.37,2013-05-08 14:31:00,
2013-05-08 10:36:00,63.9,60.9,30.06,SE,135,4.6,4.6,90,0.00,CLR,,0.00,WeatherDisplay:10.37,2013-05-08 14:36:00,
2013-05-08 10:41:00,64.2,61.2,30.05,SW,225,0.0,0.0,90,0.00,CLR,,0.00,WeatherDisplay:10.37,2013-05-08 14:41:00,
2013-05-08 10:46:00,64.9,61.9,30.06,SW,225,2.3,2.3,90,0.00,CLR,,0.00,WeatherDisplay:10.37,2013-05-08 14:46:00,
2013-05-08 10:51:00,65.5,62.5,30.06,SW,225,4.6,4.6,90,0.00,CLR,,0.00,WeatherDisplay:10.37,2013-05-08 14:51:00,
2013-05-08 10:56:00,60.3,53.7,30.04,SE,135,5.8,5.8,79,0.00,CLR,,0.00,WeatherDisplay:10.37,2013-05-08 14:56:00,
2013-05-08 11:01:00,66.2,61.6,30.06,SW,225,5.8,5.8,85,0.00,CLR,,0.00,WeatherDisplay:10.37,2013-05-08 15:01:00,
2013-05-08 11:06:00,66.9,62.3,30.06,North,0,2.3,2.3,85,0.00,CLR,,0.00,WeatherDisplay:10.37,2013-05-08 15:06:00,
2013-05-08 11:11:00,67.8,62.8,30.06,South,180,2.3,2.3,84,0.00,CLR,,0.00,WeatherDisplay:10.37,2013-05-08 15:11:00,
2013-05-08 11:16:00,68.4,63.0,30.06,SW,225,8.1,8.1,83,0.00,CLR,,0.00,WeatherDisplay:10.37,2013-05-08 15:16:00,
2013-05-08 11:21:00,68.5,62.1,30.06,SW,225,6.9,6.9,80,0.00,CLR,,0.00,WeatherDisplay:10.37,2013-05-08 15:21:00,
2013-05-08 11:26:00,68.5,62.5,30.06,SW,225,6.9,6.9,81,0.00,CLR,,0.00,WeatherDisplay:10.37,2013-05-08 15:26:00,
2013-05-08 11:31:00,59.9,54.4,30.03,South,180,6.9,6.9,82,0.00,CLR,,0.00,WeatherDisplay:10.37,2013-05-08 15:31:00,
2013-05-08 11:36:00,68.5,62.1,30.06,South,180,4.6,4.6,80,0.00,CLR,,0.00,WeatherDisplay:10.37,2013-05-08 15:36:00,
2013-05-08 11:41:00,68.5,62.1,30.06,North,0,2.3,0.0,80,0.00,CLR,,0.00,WeatherDisplay:10.37,2013-05-08 15:41:00,
2013-05-08 11:46:00,68.7,61.9,30.06,SW,225,5.8,5.8,79,0.00,CLR,,0.00,WeatherDisplay:10.37,2013-05-08 15:46:00,
2013-05-08 11:51:00,69.1,62.6,30.06,SE,135,4.6,4.6,80,0.00,CLR,,0.00,WeatherDisplay:10.37,2013-05-08 15:51:00,
2013-05-08 11:56:00,69.3,62.1,30.06,South,180,4.6,4.6,78,0.00,CLR,,0.00,WeatherDisplay:10.37,2013-05-08 15:56:00,
2013-05-08 12:01:00,69.6,62.5,30.06,SE,135,4.6,4.6,78,0.00,CLR,,0.00,WeatherDisplay:10.37,2013-05-08 16:01:00,
2013-05-08 12:06:00,70.5,63.0,30.06,East,90,4.6,4.6,77,0.00,CLR,,0.00,WeatherDisplay:10.37,2013-05-08 16:06:00,
2013-05-08 12:11:00,71.2,62.9,30.06,North,0,5.8,0.0,75,0.00,CLR,,0.00,WeatherDisplay:10.37,2013-05-08 16:11:00,
2013-05-08 12:16:00,72.0,63.2,30.06,North,0,4.6,4.6,74,0.00,CLR,,0.00,WeatherDisplay:10.37,2013-05-08 16:16:00,
2013-05-08 12:21:00,72.9,64.1,30.05,North,0,5.8,5.8,74,0.00,CLR,,0.00,WeatherDisplay:10.37,2013-05-08 16:21:00,
2013-05-08 12:26:00,73.2,64.0,30.05,East,90,2.3,2.3,73,0.00,CLR,,0.00,WeatherDisplay:10.37,2013-05-08 16:26:00,
2013-05-08 12:31:00,73.9,63.9,30.05,SW,225,5.8,5.8,71,0.00,CLR,,0.00,WeatherDisplay:10.37,2013-05-08 16:31:00,
2013-05-08 12:36:00,74.5,64.9,30.05,SE,135,5.8,5.8,72,0.00,CLR,,0.00,WeatherDisplay:10.37,2013-05-08 16:36:00,
2013-05-08 12:41:00,75.0,65.0,30.04,NNW,338,4.6,4.6,71,0.00,CLR,,0.00,WeatherDisplay:10.37,2013-05-08 16:41:00,
2013-05-08 12:46:00,75.4,64.5,30.04,NE,45,4.6,4.6,69,0.00,CLR,,0.00,WeatherDisplay:10.37,2013-05-08 16:46:00,
2013-05-08 12:51:00,75.4,64.5,30.04,North,0,4.6,4.6,69,0.00,CLR,,0.00,WeatherDisplay:10.37,2013-05-08 16:51:00,
2013-05-08 12:56:00,75.9,65.4,30.04,West,270,5.8,5.8,70,0.00,CLR,,0.00,WeatherDisplay:10.37,2013-05-08 16:56:00,
2013-05-08 13:01:00,76.3,64.5,30.03,SE,135,4.6,4.6,67,0.00,CLR,,0.00,WeatherDisplay:10.37,2013-05-08 17:01:00,
2013-05-08 13:06:00,76.5,64.3,30.03,SW,225,11.5,11.5,66,0.00,CLR,,0.00,WeatherDisplay:10.37,2013-05-08 17:06:00,
2013-05-08 13:11:00,75.2,62.6,30.03,West,270,6.9,6.9,65,0.00,CLR,,0.00,WeatherDisplay:10.37,2013-05-08 17:11:00,
2013-05-08 13:16:00,73.4,63.0,30.03,North,0,4.6,4.6,70,0.00,CLR,,0.00,WeatherDisplay:10.37,2013-05-08 17:16:00,
2013-05-08 13:21:00,72.1,62.6,30.03,SW,225,2.7,2.7,72,0.00,CLR,,0.00,WeatherDisplay:10.37,2013-05-08 17:21:00,
2013-05-08 13:26:00,71.6,62.1,30.03,NW,315,0.0,0.0,72,0.00,CLR,,0.00,WeatherDisplay:10.37,2013-05-08 17:26:00,
2013-05-08 13:31:00,71.2,62.5,30.03,NW,315,2.3,0.0,74,0.00,CLR,,0.00,WeatherDisplay:10.37,2013-05-08 17:31:00,
2013-05-08 13:36:00,71.1,62.7,30.03,North,0,1.1,0.0,75,0.00,CLR,,0.00,WeatherDisplay:10.37,2013-05-08 17:36:00,
2013-05-08 13:41:00,72.1,63.4,30.03,SW,225,4.6,4.6,74,0.00,CLR,,0.00,WeatherDisplay:10.37,2013-05-08 17:41:00,
2013-05-08 13:46:00,73.9,65.1,30.03,South,180,5.8,5.8,74,0.00,CLR,,0.00,WeatherDisplay:10.37,2013-05-08 17:46:00,
2013-05-08 13:51:00,74.8,64.4,30.03,North,0,5.8,5.8,70,0.00,CLR,,0.00,WeatherDisplay:10.37,2013-05-08 17:51:00,
2013-05-08 13:56:00,75.7,64.8,30.03,East,90,4.6,4.6,69,0.00,CLR,,0.00,WeatherDisplay:10.37,2013-05-08 17:56:00,
2013-05-08 14:01:00,76.3,63.2,30.03,SW,225,11.5,11.5,64,0.00,CLR,,0.00,WeatherDisplay:10.37,2013-05-08 18:01:00,
2013-05-08 14:06:00,75.4,62.8,30.03,SW,225,4.6,4.6,65,0.00,CLR,,0.00,WeatherDisplay:10.37,2013-05-08 18:06:00,
2013-05-08 14:11:00,74.5,61.9,30.03,SW,225,4.6,0.0,65,0.00,CLR,,0.00,WeatherDisplay:10.37,2013-05-08 18:11:00,
2013-05-08 14:16:00,74.8,63.1,30.03,SW,225,4.6,4.6,67,0.00,CLR,,0.00,WeatherDisplay:10.37,2013-05-08 18:16:00,
2013-05-08 14:21:00,75.4,63.2,30.02,SE,135,5.8,5.8,66,0.00,CLR,,0.00,WeatherDisplay:10.37,2013-05-08 18:21:00,
2013-05-08 14:26:00,76.5,63.8,30.03,SW,225,5.8,5.8,65,0.00,CLR,,0.00,WeatherDisplay:10.37,2013-05-08 18:26:00,
2013-05-08 14:31:00,77.2,64.1,30.03,North,0,6.9,6.9,64,0.00,CLR,,0.00,WeatherDisplay:10.37,2013-05-08 18:31:00,
2013-05-08 14:36:00,77.4,63.8,30.03,SW,225,5.8,5.8,63,0.00,CLR,,0.00,WeatherDisplay:10.37,2013-05-08 18:36:00,
2013-05-08 14:41:00,77.7,63.7,30.02,SW,225,8.1,8.1,62,0.00,CLR,,0.00,WeatherDisplay:10.37,2013-05-08 18:41:00,
2013-05-08 14:46:00,77.2,63.6,30.02,SW,225,10.4,10.4,63,0.00,CLR,,0.00,WeatherDisplay:10.37,2013-05-08 18:46:00,
2013-05-08 14:51:00,75.9,62.4,30.03,SW,225,8.1,8.1,63,0.00,CLR,,0.00,WeatherDisplay:10.37,2013-05-08 18:51:00,
2013-05-08 14:56:00,75.9,62.9,30.02,South,180,10.4,10.4,64,0.00,CLR,,0.00,WeatherDisplay:10.37,2013-05-08 18:56:00,
2013-05-08 15:01:00,75.4,63.2,30.03,SW,225,5.8,5.8,66,0.00,CLR,,0.00,WeatherDisplay:10.37,2013-05-08 19:01:00,
2013-05-08 15:06:00,75.4,62.8,30.03,South,180,8.1,8.1,65,0.00,CLR,,0.00,WeatherDisplay:10.37,2013-05-08 19:06:00,
2013-05-08 15:11:00,74.5,61.9,30.03,SW,225,10.4,10.4,65,0.00,CLR,,0.00,WeatherDisplay:10.37,2013-05-08 19:11:00,
2013-05-08 15:16:00,73.8,61.7,30.03,SW,225,6.9,6.9,66,0.00,CLR,,0.00,WeatherDisplay:10.37,2013-05-08 19:16:00,
2013-05-08 15:21:00,73.2,61.2,30.03,WSW,248,4.6,4.6,66,0.00,CLR,,0.00,WeatherDisplay:10.37,2013-05-08 19:21:00,
2013-05-08 15:26:00,72.5,61.3,30.03,SW,225,6.9,6.9,68,0.00,CLR,,0.00,WeatherDisplay:10.37,2013-05-08 19:26:00,
2013-05-08 15:31:00,71.8,61.5,30.03,South,180,2.3,0.0,70,0.01,RA,,0.01,WeatherDisplay:10.37,2013-05-08 19:31:00,
2013-05-08 15:36:00,70.2,62.6,30.03,North,0,2.3,0.0,77,0.01,RA,,0.01,WeatherDisplay:10.37,2013-05-08 19:36:00,
2013-05-08 15:41:00,69.1,63.0,30.03,North,0,0.0,0.0,81,0.01,,,0.01,WeatherDisplay:10.37,2013-05-08 19:41:00,
2013-05-08 15:46:00,68.5,63.2,30.02,North,0,0.0,0.0,83,0.01,CLR,,0.01,WeatherDisplay:10.37,2013-05-08 19:46:00,
2013-05-08 15:51:00,68.2,63.5,30.02,North,0,0.0,0.0,85,0.01,CLR,,0.01,WeatherDisplay:10.37,2013-05-08 19:51:00,
2013-05-08 15:56:00,68.0,64.0,30.02,North,0,0.0,0.0,87,0.01,CLR,,0.01,WeatherDisplay:10.37,2013-05-08 19:56:00,
2013-05-08 16:01:00,68.0,64.6,30.02,North,0,0.0,0.0,89,0.01,CLR,,0.01,WeatherDisplay:10.37,2013-05-08 20:01:00,
2013-05-08 16:06:00,68.7,65.3,30.02,North,0,0.0,0.0,89,0.01,CLR,,0.01,WeatherDisplay:10.37,2013-05-08 20:06:00,
2013-05-08 16:11:00,70.5,66.8,30.02,South,180,5.8,5.8,88,0.01,CLR,,0.01,WeatherDisplay:10.37,2013-05-08 20:11:00,
2013-05-08 16:16:00,72.5,66.3,30.01,SW,225,5.8,5.8,81,0.01,CLR,,0.01,WeatherDisplay:10.37,2013-05-08 20:16:00,
2013-05-08 16:21:00,73.2,65.6,30.01,West,270,0.0,0.0,77,0.01,CLR,,0.01,WeatherDisplay:10.37,2013-05-08 20:21:00,
2013-05-08 16:26:00,73.0,65.0,30.01,SSW,202,4.6,4.6,76,0.01,CLR,,0.01,WeatherDisplay:10.37,2013-05-08 20:26:00,
2013-05-08 16:31:00,72.7,64.3,30.01,SE,135,4.6,4.6,75,0.00,CLR,,0.01,WeatherDisplay:10.37,2013-05-08 20:31:00,
2013-05-08 16:36:00,72.1,64.2,30.01,SW,225,5.8,5.8,76,0.00,CLR,,0.01,WeatherDisplay:10.37,2013-05-08 20:36:00,
2013-05-08 16:41:00,71.6,64.0,30.01,WNW,292,4.6,4.6,77,0.02,RA,,0.05,WeatherDisplay:10.37,2013-05-08 20:41:00,
2013-05-08 16:46:00,69.8,63.3,30.01,South,180,5.8,5.8,80,0.05,RA,,0.06,WeatherDisplay:10.37,2013-05-08 20:46:00,
2013-05-08 16:51:00,68.5,63.2,30.01,SW,225,2.3,0.0,83,0.05,RA,,0.06,WeatherDisplay:10.37,2013-05-08 20:51:00,
2013-05-08 16:56:00,67.6,63.6,30.01,North,0,0.0,0.0,87,0.05,CLR,,0.06,WeatherDisplay:10.37,2013-05-08 20:56:00,
2013-05-08 17:01:00,66.9,63.9,30.02,NE,45,5.8,5.8,90,0.05,CLR,,0.06,WeatherDisplay:10.37,2013-05-08 21:01:00,
2013-05-08 17:06:00,66.0,64.5,30.02,West,270,1.1,0.0,95,0.05,CLR,,0.06,WeatherDisplay:10.37,2013-05-08 21:06:00,
2013-05-08 17:11:00,66.0,64.5,30.01,North,0,2.3,2.3,95,0.05,CLR,,0.06,WeatherDisplay:10.37,2013-05-08 21:11:00,
2013-05-08 17:16:00,66.2,64.7,30.01,NE,45,1.1,0.0,95,0.05,CLR,,0.06,WeatherDisplay:10.37,2013-05-08 21:16:00,
2013-05-08 17:21:00,67.1,65.6,30.01,NE,45,2.3,0.0,95,0.05,CLR,,0.06,WeatherDisplay:10.37,2013-05-08 21:21:00,
2013-05-08 17:26:00,66.7,65.0,30.01,NW,315,0.0,0.0,94,0.05,CLR,,0.06,WeatherDisplay:10.37,2013-05-08 21:26:00,
2013-05-08 17:31:00,66.0,64.5,30.01,North,0,2.3,0.0,95,0.05,CLR,,0.06,WeatherDisplay:10.37,2013-05-08 21:31:00,
2013-05-08 17:36:00,65.7,64.2,30.01,North,0,1.1,0.0,95,0.05,CLR,,0.06,WeatherDisplay:10.37,2013-05-08 21:36:00,
2013-05-08 17:41:00,65.3,63.8,30.01,North,0,0.0,0.0,95,0.02,CLR,,0.06,WeatherDisplay:10.37,2013-05-08 21:41:00,
2013-05-08 17:46:00,65.5,64.3,30.01,NW,315,0.0,0.0,96,0.00,CLR,,0.06,WeatherDisplay:10.37,2013-05-08 21:46:00,
2013-05-08 17:51:00,65.7,64.5,30.01,West,270,0.0,0.0,96,0.00,CLR,,0.06,WeatherDisplay:10.37,2013-05-08 21:51:00,
2013-05-08 17:56:00,66.9,65.7,30.01,SW,225,2.3,2.7,96,0.00,CLR,,0.06,WeatherDisplay:10.37,2013-05-08 21:56:00,
2013-05-08 18:01:00,67.8,66.3,30.01,NW,315,4.6,0.0,95,0.00,CLR,,0.06,WeatherDisplay:10.37,2013-05-08 22:01:00,
2013-05-08 18:06:00,68.4,66.6,30.01,North,0,0.0,0.0,94,0.00,CLR,,0.06,WeatherDisplay:10.37,2013-05-08 22:06:00,
2013-05-08 18:11:00,68.5,66.7,30.01,North,0,0.0,0.0,94,0.00,CLR,,0.06,WeatherDisplay:10.37,2013-05-08 22:11:00,
2013-05-08 18:16:00,68.4,66.6,30.01,North,0,0.0,0.0,94,0.00,CLR,,0.06,WeatherDisplay:10.37,2013-05-08 22:16:00,
2013-05-08 18:21:00,68.0,66.2,30.02,NE,45,8.1,8.1,94,0.00,CLR,,0.06,WeatherDisplay:10.37,2013-05-08 22:21:00,
2013-05-08 18:26:00,68.2,66.7,30.01,North,0,2.3,0.0,95,0.00,CLR,,0.06,WeatherDisplay:10.37,2013-05-08 22:26:00,
2013-05-08 18:31:00,68.7,67.2,30.01,NNE,22,2.3,0.0,95,0.00,CLR,,0.06,WeatherDisplay:10.37,2013-05-08 22:31:00,
2013-05-08 18:36:00,68.7,67.2,30.01,NE,45,2.3,0.0,95,0.00,CLR,,0.06,WeatherDisplay:10.37,2013-05-08 22:36:00,
2013-05-08 18:41:00,69.1,67.0,30.00,East,90,0.0,0.0,93,0.00,CLR,,0.06,WeatherDisplay:10.37,2013-05-08 22:41:00,
2013-05-08 18:46:00,69.1,67.0,30.01,North,0,0.0,0.0,93,0.00,CLR,,0.06,WeatherDisplay:10.37,2013-05-08 22:46:00,
2013-05-08 18:51:00,68.9,66.8,30.00,North,0,0.0,0.0,93,0.00,CLR,,0.06,WeatherDisplay:10.37,2013-05-08 22:51:00,
2013-05-08 18:56:00,68.5,66.4,30.00,North,0,0.0,0.0,93,0.00,CLR,,0.06,WeatherDisplay:10.37,2013-05-08 22:56:00,
2013-05-08 19:01:00,68.2,66.1,30.00,North,0,0.0,0.0,93,0.00,CLR,,0.06,WeatherDisplay:10.37,2013-05-08 23:01:00,
2013-05-08 19:06:00,67.8,66.0,30.00,North,0,0.0,0.0,94,0.00,CLR,,0.06,WeatherDisplay:10.37,2013-05-08 23:06:00,
2013-05-08 19:11:00,67.3,65.5,30.00,North,0,0.0,0.0,94,0.00,CLR,,0.06,WeatherDisplay:10.37,2013-05-08 23:11:00,
2013-05-08 19:16:00,66.9,65.1,30.00,North,0,0.0,0.0,94,0.00,CLR,,0.06,WeatherDisplay:10.37,2013-05-08 23:16:00,
2013-05-08 19:21:00,66.7,65.3,30.00,North,0,0.0,0.0,95,0.00,CLR,,0.06,WeatherDisplay:10.37,2013-05-08 23:21:00,
2013-05-08 19:26:00,66.6,65.1,30.01,North,0,0.0,0.0,95,0.00,CLR,,0.06,WeatherDisplay:10.37,2013-05-08 23:26:00,
2013-05-08 19:31:00,66.4,64.9,30.00,North,0,0.0,0.0,95,0.00,CLR,,0.06,WeatherDisplay:10.37,2013-05-08 23:31:00,
2013-05-08 19:36:00,66.0,65.1,30.01,North,0,0.0,0.0,97,0.00,CLR,,0.06,WeatherDisplay:10.37,2013-05-08 23:36:00,
2013-05-08 19:41:00,66.0,65.1,30.01,North,0,0.0,0.0,97,0.00,CLR,,0.06,WeatherDisplay:10.37,2013-05-08 23:41:00,
2013-05-08 19:46:00,65.8,65.3,30.01,North,0,0.0,0.0,98,0.00,CLR,,0.06,WeatherDisplay:10.37,2013-05-08 23:46:00,
2013-05-08 19:51:00,65.5,64.9,30.01,North,0,0.0,0.0,98,0.00,CLR,,0.06,WeatherDisplay:10.37,2013-05-08 23:51:00,
2013-05-08 19:56:00,65.5,64.9,30.01,North,0,0.0,0.0,98,0.00,CLR,,0.06,WeatherDisplay:10.37,2013-05-08 23:56:00,
2013-05-08 20:01:00,65.3,64.7,30.01,North,0,0.0,0.0,98,0.00,CLR,,0.06,WeatherDisplay:10.37,2013-05-09 00:01:00,
2013-05-08 20:06:00,65.1,64.5,30.01,North,0,0.0,0.0,98,0.00,CLR,,0.06,WeatherDisplay:10.37,2013-05-09 00:06:00,
2013-05-08 20:11:00,64.8,64.5,30.02,North,0,0.0,0.0,99,0.00,CLR,,0.06,WeatherDisplay:10.37,2013-05-09 00:11:00,
2013-05-08 20:16:00,64.6,64.3,30.02,North,0,0.0,0.0,99,0.00,CLR,,0.06,WeatherDisplay:10.37,2013-05-09 00:16:00,
2013-05-08 20:21:00,64.4,64.1,30.03,West,270,0.0,0.0,99,0.00,CLR,,0.06,WeatherDisplay:10.37,2013-05-09 00:21:00,
2013-05-08 20:26:00,64.2,63.4,30.03,NW,315,0.0,0.0,97,0.00,CLR,,0.06,WeatherDisplay:10.37,2013-05-09 00:26:00,
2013-05-08 20:31:00,64.2,63.4,30.03,NW,315,0.0,0.0,97,0.00,CLR,,0.06,WeatherDisplay:10.37,2013-05-09 00:31:00,
2013-05-08 20:36:00,64.2,63.4,30.03,NW,315,0.0,0.0,97,0.00,CLR,,0.06,WeatherDisplay:10.37,2013-05-09 00:36:00,
2013-05-08 20:41:00,64.0,63.2,30.03,NW,315,0.0,0.0,97,0.00,CLR,,0.06,WeatherDisplay:10.37,2013-05-09 00:41:00,
2013-05-08 20:46:00,64.0,63.2,30.03,NW,315,0.0,0.0,97,0.00,CLR,,0.06,WeatherDisplay:10.37,2013-05-09 00:46:00,
2013-05-08 20:51:00,64.0,63.2,30.03,NW,315,0.0,0.0,97,0.00,CLR,,0.06,WeatherDisplay:10.37,2013-05-09 00:51:00,
2013-05-08 20:56:00,63.9,63.0,30.03,NW,315,0.0,0.0,97,0.00,CLR,,0.06,WeatherDisplay:10.37,2013-05-09 00:56:00,
2013-05-08 21:01:00,63.9,63.0,30.03,NW,315,0.0,0.0,97,0.00,CLR,,0.06,WeatherDisplay:10.37,2013-05-09 01:01:00,
2013-05-08 21:06:00,63.7,62.8,30.03,NW,315,0.0,0.0,97,0.00,CLR,,0.06,WeatherDisplay:10.37,2013-05-09 01:06:00,
2013-05-08 21:11:00,63.5,62.6,30.03,NW,315,0.0,0.0,97,0.00,CLR,,0.06,WeatherDisplay:10.37,2013-05-09 01:11:00,
2013-05-08 21:16:00,63.5,62.6,30.03,NW,315,0.0,0.0,97,0.00,CLR,,0.06,WeatherDisplay:10.37,2013-05-09 01:16:00,
2013-05-08 21:21:00,63.1,62.3,30.03,NW,315,0.0,0.0,97,0.00,CLR,,0.06,WeatherDisplay:10.37,2013-05-09 01:21:00,
2013-05-08 21:26:00,63.1,62.3,30.03,NW,315,0.0,0.0,97,0.00,CLR,,0.06,WeatherDisplay:10.37,2013-05-09 01:26:00,
2013-05-08 21:31:00,63.0,62.1,30.04,NW,315,0.0,0.0,97,0.00,CLR,,0.06,WeatherDisplay:10.37,2013-05-09 01:31:00,
2013-05-08 21:36:00,62.6,61.7,30.04,NW,315,0.0,0.0,97,0.00,CLR,,0.06,WeatherDisplay:10.37,2013-05-09 01:36:00,
2013-05-08 21:41:00,62.2,61.7,30.04,NW,315,0.0,0.0,98,0.00,CLR,,0.06,WeatherDisplay:10.37,2013-05-09 01:41:00,
2013-05-08 21:46:00,62.1,61.5,30.04,NW,315,0.0,0.0,98,0.00,CLR,,0.06,WeatherDisplay:10.37,2013-05-09 01:46:00,
2013-05-08 21:51:00,61.9,61.3,30.04,NW,315,0.0,0.0,98,0.00,CLR,,0.06,WeatherDisplay:10.37,2013-05-09 01:51:00,
2013-05-08 21:56:00,61.7,61.1,30.04,NW,315,0.0,0.0,98,0.00,CLR,,0.06,WeatherDisplay:10.37,2013-05-09 01:56:00,
2013-05-08 22:01:00,61.5,61.0,30.04,NW,315,0.0,0.0,98,0.00,CLR,,0.06,WeatherDisplay:10.37,2013-05-09 02:01:00,
2013-05-08 22:06:00,61.3,60.8,30.05,NW,315,0.0,0.0,98,0.00,CLR,,0.06,WeatherDisplay:10.37,2013-05-09 02:06:00,
2013-05-08 22:11:00,61.2,60.6,30.05,NW,315,0.0,0.0,98,0.00,CLR,,0.06,WeatherDisplay:10.37,2013-05-09 02:11:00,
2013-05-08 22:16:00,61.2,60.6,30.05,NW,315,0.0,0.0,98,0.00,CLR,,0.06,WeatherDisplay:10.37,2013-05-09 02:16:00,
2013-05-08 22:21:00,61.2,60.6,30.06,NW,315,0.0,0.0,98,0.00,CLR,,0.06,WeatherDisplay:10.37,2013-05-09 02:21:00,
2013-05-08 22:26:00,61.0,60.4,30.06,NW,315,0.0,0.0,98,0.00,CLR,,0.06,WeatherDisplay:10.37,2013-05-09 02:26:00,
2013-05-08 22:31:00,61.0,60.4,30.06,NW,315,0.0,0.0,98,0.00,CLR,,0.06,WeatherDisplay:10.37,2013-05-09 02:31:00,
2013-05-08 22:36:00,60.8,60.2,30.06,NW,315,0.0,0.0,98,0.00,CLR,,0.06,WeatherDisplay:10.37,2013-05-09 02:36:00,
2013-05-08 22:41:00,60.6,60.3,30.06,NW,315,0.0,0.0,99,0.00,CLR,,0.06,WeatherDisplay:10.37,2013-05-09 02:41:00,
2013-05-08 22:46:00,60.6,60.3,30.06,NW,315,0.0,0.0,99,0.00,CLR,,0.06,WeatherDisplay:10.37,2013-05-09 02:46:00,
2013-05-08 22:51:00,60.4,60.2,30.06,NW,315,0.0,0.0,99,0.00,CLR,,0.06,WeatherDisplay:10.37,2013-05-09 02:51:00,
2013-05-08 22:56:00,60.4,60.2,30.06,NW,315,0.0,0.0,99,0.00,CLR,,0.06,WeatherDisplay:10.37,2013-05-09 02:56:00,
2013-05-08 23:01:00,60.3,60.0,30.06,NW,315,0.0,0.0,99,0.00,CLR,,0.06,WeatherDisplay:10.37,2013-05-09 03:01:00,
2013-05-08 23:06:00,60.1,59.8,30.06,NW,315,0.0,0.0,99,0.00,CLR,,0.06,WeatherDisplay:10.37,2013-05-09 03:06:00,
2013-05-08 23:11:00,60.1,59.8,30.06,NW,315,0.0,0.0,99,0.00,CLR,,0.06,WeatherDisplay:10.37,2013-05-09 03:11:00,
2013-05-08 23:16:00,60.1,59.8,30.07,NW,315,0.0,0.0,99,0.00,CLR,,0.06,WeatherDisplay:10.37,2013-05-09 03:16:00,
2013-05-08 23:21:00,59.9,59.6,30.06,NW,315,0.0,0.0,99,0.00,CLR,,0.06,WeatherDisplay:10.37,2013-05-09 03:21:00,
2013-05-08 23:26:00,59.9,59.6,30.07,NW,315,0.0,0.0,99,0.00,CLR,,0.06,WeatherDisplay:10.37,2013-05-09 03:26:00,
2013-05-08 23:31:00,59.7,59.4,30.06,NW,315,0.0,0.0,99,0.00,CLR,,0.06,WeatherDisplay:10.37,2013-05-09 03:31:00,
2013-05-08 23:36:00,59.7,59.4,30.06,NW,315,0.0,0.0,99,0.00,CLR,,0.06,WeatherDisplay:10.37,2013-05-09 03:36:00,
2013-05-08 23:41:00,59.5,59.3,30.06,NW,315,0.0,0.0,99,0.00,CLR,,0.06,WeatherDisplay:10.37,2013-05-09 03:41:00,
2013-05-08 23:46:00,55.8,53.2,30.10,South,180,0.0,1.3,91,0.00,CLR,,0.06,WeatherDisplay:10.37,2013-05-09 03:46:00,
2013-05-08 23:51:00,59.0,58.7,30.06,NW,315,0.0,0.0,99,0.00,CLR,,0.06,WeatherDisplay:10.37,2013-05-09 03:51:00,
2013-05-08 23:56:00,59.0,58.7,30.06,NW,315,0.0,0.0,99,0.00,CLR,,0.06,WeatherDisplay:10.37,2013-05-09 03:56:00,